GW5730 Weather Reports


time (UTC)temp
F
wind
direction
speed
knots
gust
knots
rain 1hr
in
rain 24hr
in
rain mn
in
humidity
%
barometer
mb
20260906101437 69 9 0.0 0.0 0.00 0.00 0.00 95 1003.9
20260906095937 70 17 0.0 0.0 0.00 0.00 0.00 95 1003.8
20260906094437 70 347 0.0 0.0 0.00 0.00 0.00 94 1003.8
20260906092937 70 257 0.0 0.0 0.00 0.00 0.00 94 1003.8
20260906091437 70 23 0.9 0.0 0.00 0.00 0.00 94 1003.8
20260906085936 70 25 1.7 0.0 0.00 0.00 0.00 94 1003.7
20260906084437 70 211 0.9 0.0 0.00 0.00 0.00 94 1003.7
20260906082937 70 210 0.0 0.0 0.00 0.00 0.00 94 1003.7
20260906081454 70 211 0.0 0.0 0.00 0.00 0.00 94 1003.7
20260906075936 71 211 0.0 0.0 0.00 0.00 0.00 94 1003.9
20260906074437 71 93 0.0 0.0 0.00 0.00 0.00 93 1003.9
20260906072936 71 142 1.7 0.0 0.00 0.00 0.00 93 1003.9
20260906071436 71 106 1.7 0.0 0.00 0.00 0.00 93 1003.9
20260906065953 71 101 0.9 0.0 0.00 0.00 0.00 93 1004.1
20260906064437 71 54 0.0 0.0 0.00 0.00 0.00 93 1004.1
20260906062936 71 354 0.0 0.0 0.00 0.00 0.00 93 1004.1
20260906061437 71 354 0.0 0.0 0.00 0.00 0.00 93 1004.1
20260906055954 71 354 0.0 0.0 0.00 0.00 0.03 93 1004.3
20260906054436 71 354 0.0 0.0 0.00 0.00 0.03 93 1004.3
20260906052937 71 52 0.0 0.0 0.00 0.00 0.03 92 1004.3
20260906051437 71 33 1.7 0.0 0.00 0.00 0.03 92 1004.3
20260906045937 71 97 1.7 0.0 0.00 0.00 0.03 92 1004.5
20260906044436 72 342 0.9 0.0 0.00 0.00 0.03 92 1004.5
20260906042937 72 150 0.0 0.0 0.00 0.00 0.03 92 1004.5
20260906041436 72 27 0.9 0.0 0.00 0.00 0.03 92 1004.5
20260906035936 72 16 0.9 0.0 0.00 0.00 0.03 91 1005.0
20260906034440 72 246 0.9 0.0 0.00 0.00 0.03 91 1005.0
20260906032953 72 322 0.0 0.0 0.00 0.00 0.03 91 1005.0
20260906031436 73 9 1.7 0.0 0.00 0.00 0.03 91 1005.0
20260906025936 73 354 0.9 0.0 0.00 0.00 0.03 90 1004.6
20260906024454 73 236 0.0 0.0 0.00 0.00 0.03 91 1004.6
20260906022936 73 262 0.0 0.0 0.00 0.00 0.03 90 1004.6
20260906021437 73 106 3.5 0.0 0.00 0.00 0.03 90 1004.6
20260906015937 73 228 5.2 0.0 0.00 0.00 0.03 90 1003.6
20260906014436 74 254 0.9 0.0 0.00 0.00 0.03 89 1003.6
20260906012936 74 60 2.6 0.0 0.00 0.00 0.03 89 1003.6
20260906011436 74 33 5.2 0.0 0.00 0.00 0.03 88 1003.6
20260906005936 74 13 0.0 0.0 0.00 0.00 0.03 87 1004.3
20260906004436 75 283 1.7 0.0 0.00 0.00 0.03 87 1004.3
20260906002937 75 238 0.0 0.0 0.00 0.00 0.03 85 1004.3
20260906001436 76 63 2.6 0.0 0.00 0.00 0.03 83 1004.3
20260905235937 76 299 2.6 0.0 0.00 0.00 0.03 83 1004.0
20260905234436 76 11 1.7 0.0 0.00 0.00 0.03 79 1004.0
20260905232936 77 65 13.9 0.0 0.00 0.00 0.01 73 1004.0
20260905231437 83 41 26.9 0.0 0.00 0.00 0.00 60 1004.0
20260905225937 89 125 0.9 0.0 0.00 0.00 0.00 63 1002.9
20260905224454 91 214 0.9 0.0 0.00 0.00 0.00 57 1002.9
20260905222937 92 224 5.2 0.0 0.00 0.00 0.00 53 1002.9
20260905221437 93 230 4.3 0.0 0.00 0.00 0.00 50 1002.9
20260905215954 94 225 8.7 0.0 0.00 0.00 0.00 48 1002.9
20260905214437 95 253 5.2 0.0 0.00 0.00 0.00 46 1002.9
20260905212937 95 258 7.0 0.0 0.00 0.00 0.00 45 1002.9
20260905211437 95 174 0.9 0.0 0.00 0.00 0.00 44 1002.9
20260905205936 95 228 2.6 0.0 0.00 0.00 0.00 46 1003.0
20260905204436 95 223 7.0 0.0 0.00 0.00 0.00 45 1003.0
20260905202937 94 241 7.8 0.0 0.00 0.00 0.00 46 1003.0
20260905201454 94 172 2.6 0.0 0.00 0.00 0.00 48 1003.0
20260905195936 94 58 2.6 0.0 0.00 0.00 0.00 47 1004.0
20260905194437 95 110 4.3 0.0 0.00 0.00 0.00 45 1004.0
20260905192936 94 127 3.5 0.0 0.00 0.00 0.00 44 1004.0
20260905191436 94 133 2.6 0.0 0.00 0.00 0.00 48 1004.0
20260905185937 93 222 6.1 0.0 0.00 0.00 0.00 48 1005.0
20260905184436 93 168 6.1 0.0 0.00 0.00 0.00 48 1005.0
20260905182936 92 101 5.2 0.0 0.00 0.00 0.00 52 1005.0
20260905181436 92 211 4.3 0.0 0.00 0.00 0.00 56 1005.0
20260905175936 91 198 2.6 0.0 0.00 0.00 0.00 59 1005.6
20260905174454 91 151 7.8 0.0 0.00 0.00 0.00 60 1005.6
20260905172936 90 342 2.6 0.0 0.00 0.00 0.00 61 1005.6
20260905171453 89 126 2.6 0.0 0.00 0.00 0.00 63 1005.6
20260905165936 88 206 7.8 0.0 0.00 0.00 0.00 66 1006.8
20260905164453 87 130 4.3 0.0 0.00 0.00 0.00 69 1006.8
20260905162936 86 246 0.0 0.0 0.00 0.00 0.00 72 1006.8
20260905161437 86 324 3.5 0.0 0.00 0.00 0.00 74 1006.8
20260905155937 85 0 0.0 0.0 0.00 0.00 0.00 77 1007.2
20260905154437 84 193 4.3 0.0 0.00 0.00 0.00 79 1007.2
20260905152936 83 267 2.6 0.0 0.00 0.00 0.00 80 1007.2
20260905151436 82 235 0.9 0.0 0.00 0.00 0.00 82 1007.2
20260905145936 81 229 4.3 0.0 0.00 0.00 0.00 85 1007.7
20260905144437 80 5 2.6 0.0 0.00 0.00 0.00 87 1007.7
20260905142936 80 340 3.5 0.0 0.00 0.00 0.00 88 1007.7
20260905141437 79 293 0.9 0.0 0.00 0.00 0.00 90 1007.7
20260905135937 78 341 0.0 0.0 0.00 0.00 0.00 92 1007.7
20260905134454 77 24 3.5 0.0 0.00 0.00 0.00 93 1007.7
20260905132936 76 267 0.0 0.0 0.00 0.00 0.00 95 1007.7
20260905131437 76 340 0.0 0.0 0.00 0.00 0.00 95 1007.7
20260905125937 76 36 1.7 0.0 0.00 0.00 0.00 95 1007.3
20260905124437 76 9 4.3 0.0 0.00 0.00 0.00 95 1007.3
20260905122936 76 321 0.0 0.0 0.00 0.00 0.00 95 1007.3
20260905121436 76 29 0.9 0.0 0.00 0.00 0.00 95 1007.3
20260905115953 76 267 0.9 0.0 0.00 0.00 0.00 95 1007.0
20260905114436 76 207 2.6 0.0 0.00 0.00 0.00 95 1007.0
20260905112936 76 232 0.0 0.0 0.00 0.00 0.00 95 1007.0
20260905111437 76 17 0.0 0.0 0.00 0.00 0.00 95 1007.0
20260905105936 76 208 0.9 0.0 0.00 0.00 0.00 95 1006.6
20260905104436 75 271 0.9 0.0 0.00 0.00 0.00 95 1006.6
20260905102937 75 252 0.9 0.0 0.00 0.00 0.00 95 1006.6